Aérodrome :
LOGIN :

S'inscrire | Disclaimer

   EN    FR    IT 

 










Légende :    VFR   VFR Marginal   IFR   IFR Intensif   IFR Très Intensif
Visi : 
Plafond : 
>= 8 km
>= 3000ft
5 à 8 km
1000 à 3000 ft
1500m à 5 km
500 à 1000 ft
800 à 1500m
200 à 500 ft
< 800m
< 200 ft
Symboles :   Orages  Brouillard  Fortes neiges  Fortes précipitations  Vent > 20 kt
SIGMETs :   Divers  Orages  Givrage  Turbulence  Onde Orograph.  Cendres Volcan.







- Altitude de l'aérodrome : 101 ft
- Code IATA : GLO
- Voir les cartes d'approche


EGBJ - Gloucestershire

DERNIER METAR :
  • 241720Z 29008KT 9999 FEW036 11/02 Q1030

METARs EXPIRÉS :
  • 241650Z 30011KT 9999 FEW037 11/02 Q1030
  • 241620Z 31009KT 9999 FEW045 12/01 Q1030
  • 241550Z 30009KT 9999 FEW042 12/01 Q1030
  • 241520Z 31010KT 9999 FEW042 12/01 Q1030
  • 241450Z 31008KT 280V350 9999 FEW041 12/01 Q1030

TAF TAF EGBJ
Valide du 24 à 15h jusqu'au 24 à 19h UTC


241358Z 2415/2419 30007KT 9999 FEW040
Pas de NOTAMs connus pour ce terrain.



MET'MAP, la Météo Aéronautique d'un coup d'oeil ! - Copyright ORBIFLY Décembre 2007 - Disclaimer

ORBIFLY MET'MAP TEAM :

Programmation & Développement : Alexandra Zaïnal
Conception & Développement : Baudouin d'Aumeries
Co-Programmation & Développement : Marc-Olivier Méhu
Soutien technique & logistique : Manuel Goepfert

Contact : metmap@orbifly.com




SOURCES & CREDITS :

   NOAA